Date String (YYYY-MM-DD hh:mm:ss) UTC,Instrument flags,absolute air pressure of the measurement (hPa),sample flow rate (lpm),inlet stack bypass flow (lpm),air temperature of the measurement (°C),ambient temperature measured by the external sensor (°C),aerosol sample conditioner tube jacket temperature (°C),OPC LED temperature (°C),internal box temperature (°C),relative humidity of the measurement (%),span deviation,mass concentration of particles derived from Lorenz-Mie calculation of OPC scattering (μg/m³),mass concentration of particles derived from Lorenz-Mie calculation of OPC scattering (μg/m³),mass concentration of particles derived from Lorenz-Mie calculation of OPC scattering (μg/m³)
DateTimeUTC,F1_M11,P_M11,Q1_M11,Q2_M11,T1_M11,T2_M11,T3_M11,T4_M11,T5_M11,U1_M11,ZSPAN_M11,X0_M11,X2_M11,X1_M11
2024-02-05 19:00:00,SystemResetWarning,0828.6,5.00,000.00,021.6,021.2,000.0,029.6,023.2,15.5,0000.0,0006.33,0004.28,0004.10
2024-02-05 19:01:00,SystemResetWarning,0828.6,5.00,000.00,021.6,021.2,000.0,029.6,023.2,15.5,0000.0,0006.13,0004.23,0004.05
2024-02-05 19:02:00,SystemResetWarning,0828.5,5.01,000.00,021.6,021.2,000.0,029.6,023.2,16.0,0000.0,0005.78,0004.21,0004.04
2024-02-05 19:03:00,SystemResetWarning,0828.6,5.01,000.00,021.6,021.2,000.0,029.6,023.3,15.7,0000.0,0005.72,0004.21,0004.03
2024-02-05 19:04:00,SystemResetWarning,0828.6,4.99,000.00,021.6,021.2,000.0,029.7,023.3,15.6,0000.0,0005.64,0004.19,0004.03
2024-02-05 19:05:00,SystemResetWarning,0828.6,4.99,000.00,021.7,021.3,000.0,029.7,023.3,15.8,0000.0,0005.66,0004.21,0004.05
2024-02-05 19:06:00,SystemResetWarning,0828.6,5.00,000.00,021.7,021.3,000.0,029.7,023.3,15.9,0000.0,0005.80,0004.27,0004.10
2024-02-05 19:07:00,SystemResetWarning,0828.6,5.00,000.00,021.7,021.3,000.0,029.7,023.3,15.7,0000.0,0005.90,0004.32,0004.14
2024-02-05 19:08:00,SystemResetWarning,0828.4,5.01,000.00,021.7,021.3,000.0,029.7,023.3,15.5,0000.0,0005.91,0004.34,0004.17
2024-02-05 19:09:00,SystemResetWarning,0828.4,5.00,000.00,021.7,021.3,000.0,029.7,023.4,15.3,0000.0,0006.02,0004.35,0004.18
2024-02-05 19:10:00,SystemResetWarning,0828.3,5.00,000.00,021.7,021.3,000.0,029.8,023.4,15.3,0000.0,0006.16,0004.39,0004.21
2024-02-05 19:11:00,SystemResetWarning,0828.4,4.99,000.00,021.8,021.3,000.0,029.8,023.4,15.7,0000.0,0006.30,0004.44,0004.27
2024-02-05 19:12:00,SystemResetWarning,0828.4,5.00,000.00,021.8,021.4,000.0,029.8,023.4,15.6,0000.0,0006.56,0004.53,0004.35
2024-02-05 19:13:00,SystemResetWarning,0828.4,5.01,000.00,021.8,021.4,000.0,029.8,023.5,15.5,0000.0,0006.64,0004.58,0004.40
2024-02-05 19:14:00,SystemResetWarning,0828.4,5.00,000.00,021.8,021.4,000.0,029.8,023.5,15.6,0000.0,0006.64,0004.59,0004.42
2024-02-05 19:15:00,SystemResetWarning,0828.4,5.00,000.00,021.8,021.4,000.0,029.9,023.5,16.1,0000.0,0006.69,0004.61,0004.43
2024-02-05 19:16:00,SystemResetWarning,0828.4,4.99,000.00,021.8,021.4,000.0,029.9,023.5,16.1,0000.0,0006.84,0004.64,0004.45
2024-02-05 19:17:00,SystemResetWarning,0828.4,5.01,000.00,021.9,021.5,000.0,029.9,023.5,16.1,0000.0,0006.88,0004.63,0004.45
2024-02-05 19:18:00,SystemResetWarning,0828.4,5.01,000.00,021.9,021.5,000.0,029.9,023.5,15.9,0000.0,0006.88,0004.65,0004.47
2024-02-05 19:19:00,SystemResetWarning,0828.3,5.00,000.00,021.9,021.5,000.0,029.9,023.5,15.7,0000.0,0006.84,0004.65,0004.47
2024-02-05 19:20:00,SystemResetWarning,0828.3,5.00,000.00,021.9,021.5,000.0,030.0,023.5,15.8,0000.0,0006.75,0004.65,0004.47
2024-02-05 19:21:00,SystemResetWarning,0828.2,4.99,000.00,021.9,021.5,000.0,030.0,023.6,15.4,0000.0,0006.70,0004.64,0004.47
2024-02-05 19:22:00,SystemResetWarning,0828.2,4.99,000.00,022.0,021.6,000.0,030.0,023.6,15.2,0000.0,0006.68,0004.63,0004.45
2024-02-05 19:23:00,SystemResetWarning,0828.2,5.01,000.00,022.0,021.6,000.0,030.0,023.6,15.2,0000.0,0006.40,0004.57,0004.42
2024-02-05 19:24:00,SystemResetWarning,0828.2,5.01,000.00,022.0,021.6,000.0,030.0,023.6,15.5,0000.0,0006.35,0004.54,0004.39
2024-02-05 19:25:00,SystemResetWarning,0828.2,5.01,000.00,022.0,021.6,000.0,030.0,023.7,15.7,0000.0,0006.33,0004.52,0004.38
2024-02-05 19:26:00,SystemResetWarning,0828.3,5.00,000.00,022.0,021.6,000.0,030.1,023.7,15.6,0000.0,0006.33,0004.50,0004.35
2024-02-05 19:27:00,SystemResetWarning,0828.3,5.00,000.00,022.1,021.7,000.0,030.1,023.7,15.6,0000.0,0006.31,0004.48,0004.32
2024-02-05 19:28:00,SystemResetWarning,0828.3,4.99,000.00,022.1,021.7,000.0,030.1,023.7,15.6,0000.0,0006.17,0004.45,0004.30
2024-02-05 19:29:00,SystemResetWarning,0828.3,5.00,000.00,022.1,021.7,000.0,030.1,023.8,15.7,0000.0,0006.13,0004.43,0004.28
2024-02-05 19:30:00,SystemResetWarning,0828.2,5.01,000.00,022.1,021.7,000.0,030.1,023.8,15.9,0000.0,0006.73,0004.41,0004.26
2024-02-05 19:31:00,SystemResetWarning,0828.1,5.01,000.00,022.1,021.7,000.0,030.2,023.8,15.7,0000.0,0007.35,0004.39,0004.25
2024-02-05 19:32:00,SystemResetWarning,0828.1,5.00,000.00,022.2,021.8,000.0,030.2,023.9,15.8,0000.0,0007.29,0004.36,0004.24
2024-02-05 19:33:00,SystemResetWarning,0828.1,5.00,000.00,022.2,021.8,000.0,030.2,023.9,15.6,0000.0,0007.23,0004.34,0004.22
2024-02-05 19:34:00,SystemResetWarning,0828.1,5.00,000.00,022.2,021.8,000.0,030.2,023.9,15.5,0000.0,0007.20,0004.34,0004.21
2024-02-05 19:35:00,SystemResetWarning,0828.0,5.00,000.00,022.2,021.8,000.0,030.2,023.9,15.5,0000.0,0007.22,0004.34,0004.22
2024-02-05 19:36:00,SystemResetWarning,0828.1,5.00,000.00,022.2,021.8,000.0,030.3,023.9,15.7,0000.0,0007.25,0004.37,0004.25
2024-02-05 19:37:00,SystemResetWarning,0828.1,5.00,000.00,022.3,021.9,000.0,030.3,024.0,15.5,0000.0,0007.28,0004.40,0004.28
2024-02-05 19:38:00,SystemResetWarning,0828.1,5.00,000.00,022.3,021.9,000.0,030.3,023.9,15.5,0000.0,0007.20,0004.41,0004.31
2024-02-05 19:39:00,SystemResetWarning,0828.0,5.00,000.00,022.3,021.9,000.0,030.3,024.0,15.4,0000.0,0007.21,0004.42,0004.34
2024-02-05 19:40:00,SystemResetWarning,0828.1,5.00,000.00,022.3,021.9,000.0,030.3,024.0,15.4,0000.0,0007.26,0004.44,0004.35
2024-02-05 19:41:00,SystemResetWarning,0828.1,5.01,000.00,022.3,021.9,000.0,030.4,024.0,15.4,0000.0,0007.07,0004.47,0004.38
2024-02-05 19:42:00,SystemResetWarning,0828.0,5.01,000.00,022.3,021.9,000.0,030.4,024.0,15.4,0000.0,0006.74,0004.51,0004.40
2024-02-05 19:43:00,SystemResetWarning,0828.1,4.99,000.00,022.4,022.0,000.0,030.4,024.1,15.5,0000.0,0006.70,0004.51,0004.41
2024-02-05 19:44:00,SystemResetWarning,0828.1,5.00,000.00,022.4,022.0,000.0,030.4,024.1,15.2,0000.0,0006.70,0004.52,0004.42
2024-02-05 19:45:00,SystemResetWarning,0828.0,5.00,000.00,022.4,022.0,000.0,030.4,024.1,15.1,0000.0,0006.75,0004.54,0004.44
2024-02-05 19:46:00,SystemResetWarning,0828.0,5.01,000.00,022.4,022.0,000.0,030.5,024.1,15.2,0000.0,0006.81,0004.55,0004.44
2024-02-05 19:47:00,SystemResetWarning,0827.9,5.01,000.00,022.4,022.0,000.0,030.5,024.2,15.3,0000.0,0006.80,0004.54,0004.44
2024-02-05 19:48:00,SystemResetWarning,0827.9,5.00,000.00,022.5,022.1,000.0,030.5,024.2,15.3,0000.0,0006.88,0004.55,0004.44
2024-02-05 19:49:00,SystemResetWarning,0827.8,5.01,000.00,022.5,022.1,000.0,030.5,024.2,15.2,0000.0,0006.93,0004.55,0004.43
2024-02-05 19:50:00,SystemResetWarning,0828.0,5.00,000.00,022.5,022.1,000.0,030.5,024.2,15.2,0000.0,0007.01,0004.58,0004.45
2024-02-05 19:51:00,SystemResetWarning,0828.1,5.00,000.00,022.5,022.1,000.0,030.6,024.2,15.2,0000.0,0007.07,0004.61,0004.47
2024-02-05 19:52:00,SystemResetWarning,0828.1,5.00,000.00,022.5,022.1,000.0,030.6,024.3,15.2,0000.0,0007.01,0004.62,0004.48
2024-02-05 19:53:00,SystemResetWarning,0828.1,5.00,000.00,022.5,022.1,000.0,030.6,024.3,15.1,0000.0,0006.40,0004.62,0004.50
2024-02-05 19:54:00,SystemResetWarning,0828.1,5.00,000.00,022.6,022.1,000.0,030.6,024.3,15.1,0000.0,0006.48,0004.67,0004.53
2024-02-05 19:55:00,SystemResetWarning,0828.1,5.00,000.00,022.6,022.2,000.0,030.6,024.3,15.1,0000.0,0006.56,0004.71,0004.57
2024-02-05 19:56:00,SystemResetWarning,0828.1,4.99,000.00,022.6,022.2,000.0,030.6,024.3,15.2,0000.0,0006.64,0004.74,0004.60
2024-02-05 19:57:00,SystemResetWarning,0828.1,4.99,000.00,022.6,022.2,000.0,030.7,024.4,15.2,0000.0,0006.75,0004.80,0004.64
2024-02-05 19:58:00,SystemResetWarning,0828.1,5.00,000.00,022.6,022.2,000.0,030.7,024.4,15.2,0000.0,0006.79,0004.82,0004.67
2024-02-05 19:59:00,SystemResetWarning,0828.1,5.00,000.00,022.6,022.2,000.0,030.7,024.4,15.3,0000.0,0006.81,0004.85,0004.69
